• In Russia
  • List of Countries
  • For 7 days
  • Water Temperature
  • Satellite Maps
  • Weather Map
  • Weather Widgets
  • user-avatar
    Login

    Hourly Weather Barra

    Today, 23 September, Saturday

    Time Temperature Precipitation Wind Pressure Humidity
    00:00 +22°C° 0 mm 1 mps 751 mmHg 93%
    01:00 +22°C° 0 mm 1 mps 751 mmHg 93%
    02:00 +22°C° 0 mm 1 mps 751 mmHg 94%
    03:00 +22°C° 0 mm 1 mps 751 mmHg 94%
    04:00 +21°C° 0 mm 1 mps 750 mmHg 97%
    05:00 +21°C° 0 mm 1 mps 751 mmHg 95%
    06:00 +21°C° 0 mm 1 mps 751 mmHg 94%
    07:00 +21°C° 0 mm 1 mps 751 mmHg 93%
    08:00 +24°C° 0 mm 1 mps 751 mmHg 80%
    09:00 +27°C° 0 mm 1 mps 751 mmHg 66%
    10:00 +30°C° 0 mm 2 mps 752 mmHg 51%
    11:00 +30°C° 0 mm 2 mps 751 mmHg 48%
    12:00 +31°C° 0 mm 2 mps 751 mmHg 44%
    13:00 +33°C° 0 mm 3 mps 750 mmHg 41%
    14:00 +31°C° 0 mm 3 mps 750 mmHg 43%
    15:00 +30°C° 0 mm 3 mps 750 mmHg 45%
    16:00 +29°C° 0 mm 2 mps 749 mmHg 53%
    17:00 +27°C° 0 mm 2 mps 749 mmHg 64%
    18:00 +25°C° 0 mm 2 mps 750 mmHg 75%
    19:00 +22°C° 0 mm 1 mps 750 mmHg 86%
    20:00 +22°C° 0 mm 1 mps 750 mmHg 89%
    21:00 +21°C° 0 mm 1 mps 751 mmHg 92%
    22:00 +21°C° 0 mm 1 mps 751 mmHg 95%
    23:00 +21°C° 0 mm 1 mps 751 mmHg 95%

    Tomorrow, 24 September, Sunday

    Time Temperature Precipitation Wind Pressure Humidity
    00:00 +21°C° 0 mm 1 mps 751 mmHg 95%
    01:00 +21°C° 0 mm 1 mps 750 mmHg 96%
    02:00 +21°C° 0 mm 1 mps 750 mmHg 95%
    03:00 +21°C° 0 mm 1 mps 750 mmHg 95%
    04:00 +20°C° 0 mm 2 mps 750 mmHg 94%
    05:00 +20°C° 0 mm 2 mps 750 mmHg 92%
    06:00 +20°C° 0 mm 2 mps 751 mmHg 90%
    07:00 +21°C° 0 mm 2 mps 751 mmHg 89%
    08:00 +24°C° 0 mm 2 mps 751 mmHg 77%
    09:00 +26°C° 0 mm 2 mps 751 mmHg 65%
    10:00 +28°C° 0 mm 2 mps 751 mmHg 54%
    11:00 +29°C° 0 mm 3 mps 751 mmHg 50%
    12:00 +30°C° 0 mm 3 mps 750 mmHg 46%
    13:00 +31°C° 0 mm 3 mps 749 mmHg 42%
    14:00 +30°C° 0 mm 3 mps 749 mmHg 45%
    15:00 +29°C° 0 mm 3 mps 749 mmHg 47%
    16:00 +29°C° 0 mm 3 mps 748 mmHg 49%
    17:00 +27°C° 0 mm 2 mps 749 mmHg 61%
    18:00 +24°C° 0 mm 2 mps 749 mmHg 72%
    19:00 +21°C° 0 mm 2 mps 749 mmHg 83%
    20:00 +21°C° 0 mm 1 mps 750 mmHg 86%
    21:00 +21°C° 0 mm 1 mps 750 mmHg 90%
    22:00 +20°C° 0 mm 1 mps 751 mmHg 93%
    23:00 +20°C° 0 mm 1 mps 750 mmHg 94%

    Day after tomorrow, 25 September, Monday

    Time Temperature Precipitation Wind Pressure Humidity
    00:00 +20°C° 0 mm 1 mps 750 mmHg 95%
    01:00 +20°C° 0 mm 1 mps 750 mmHg 96%
    02:00 +20°C° 0 mm 1 mps 750 mmHg 96%
    03:00 +20°C° 0 mm 1 mps 750 mmHg 96%
    04:00 +19°C° 0 mm 2 mps 749 mmHg 96%
    05:00 +19°C° 0 mm 2 mps 750 mmHg 94%
    06:00 +20°C° 0 mm 2 mps 750 mmHg 92%
    07:00 +20°C° 0 mm 2 mps 751 mmHg 91%
    08:00 +23°C° 0 mm 2 mps 751 mmHg 78%
    09:00 +26°C° 0 mm 2 mps 751 mmHg 65%
    10:00 +28°C° 0 mm 2 mps 752 mmHg 52%
    11:00 +29°C° 0 mm 2 mps 751 mmHg 49%
    12:00 +30°C° 0 mm 3 mps 750 mmHg 45%
    13:00 +31°C° 0 mm 3 mps 750 mmHg 41%
    14:00 +30°C° 0 mm 3 mps 749 mmHg 43%
    15:00 +30°C° 0 mm 3 mps 749 mmHg 45%
    16:00 +29°C° 0 mm 2 mps 748 mmHg 47%
    17:00 +27°C° 0 mm 2 mps 749 mmHg 57%
    18:00 +24°C° 0 mm 2 mps 749 mmHg 68%
    19:00 +22°C° 0 mm 1 mps 749 mmHg 79%
    20:00 +21°C° 0 mm 1 mps 750 mmHg 83%
    21:00 +20°C° 0 mm 1 mps 750 mmHg 87%
    22:00 +20°C° 0 mm 1 mps 751 mmHg 90%
    23:00 +19°C° 0 mm 1 mps 750 mmHg 91%

    26 September, Tuesday

    Time Temperature Precipitation Wind Pressure Humidity
    00:00 +19°C° 0 mm 1 mps 750 mmHg 93%
    01:00 +19°C° 0 mm 1 mps 750 mmHg 94%
    02:00 +19°C° 0 mm 1 mps 750 mmHg 95%
    03:00 +19°C° 0 mm 1 mps 749 mmHg 96%
    04:00 +19°C° 0 mm 1 mps 749 mmHg 97%
    05:00 +19°C° 0 mm 1 mps 750 mmHg 95%
    06:00 +20°C° 0 mm 1 mps 750 mmHg 94%
    07:00 +20°C° 0 mm 1 mps 751 mmHg 93%
    08:00 +23°C° 0 mm 1 mps 751 mmHg 79%
    09:00 +26°C° 0 mm 1 mps 751 mmHg 64%
    10:00 +29°C° 0 mm 1 mps 752 mmHg 50%
    11:00 +30°C° 0 mm 2 mps 751 mmHg 46%
    12:00 +31°C° 0 mm 2 mps 750 mmHg 42%
    13:00 +31°C° 0 mm 2 mps 750 mmHg 38%
    14:00 +31°C° 0 mm 2 mps 749 mmHg 41%
    15:00 +30°C° 0 mm 2 mps 749 mmHg 44%
    16:00 +30°C° 0 mm 3 mps 748 mmHg 47%
    17:00 +27°C° 0 mm 2 mps 748 mmHg 58%
    18:00 +25°C° 0 mm 2 mps 749 mmHg 70%
    19:00 +21°C° 0 mm 2 mps 749 mmHg 82%
    20:00 +22°C° 0 mm 1 mps 750 mmHg 86%
    21:00 +21°C° 0 mm 1 mps 750 mmHg 89%
    22:00 +21°C° 0 mm 1 mps 751 mmHg 93%
    23:00 +20°C° 0 mm 1 mps 751 mmHg 94%

    27 September, Wednesday

    Time Temperature Precipitation Wind Pressure Humidity
    00:00 +20°C° 0 mm 1 mps 750 mmHg 95%
    01:00 +20°C° 0 mm 1 mps 750 mmHg 96%
    02:00 +20°C° 0 mm 1 mps 750 mmHg 96%
    03:00 +20°C° 0 mm 1 mps 750 mmHg 96%
    04:00 +20°C° 0 mm 1 mps 750 mmHg 96%
    05:00 +21°C° 0 mm 1 mps 750 mmHg 94%
    06:00 +21°C° 0 mm 1 mps 751 mmHg 93%
    07:00 +21°C° 0 mm 1 mps 751 mmHg 91%
    08:00 +24°C° 0 mm 1 mps 751 mmHg 79%
    09:00 +26°C° 0 mm 2 mps 751 mmHg 68%
    10:00 +28°C° 0 mm 2 mps 752 mmHg 57%
    11:00 +29°C° 0 mm 2 mps 751 mmHg 53%
    12:00 +30°C° 0 mm 2 mps 750 mmHg 49%
    13:00 +31°C° 0 mm 3 mps 750 mmHg 45%
    14:00 +31°C° 0 mm 3 mps 749 mmHg 47%
    15:00 +30°C° 0 mm 3 mps 749 mmHg 49%
    16:00 +30°C° 0 mm 2 mps 748 mmHg 51%
    17:00 +27°C° 0 mm 2 mps 749 mmHg 61%
    18:00 +25°C° 0 mm 2 mps 749 mmHg 71%
    19:00 +23°C° 0 mm 1 mps 750 mmHg 81%
    20:00 +22°C° 0 mm 1 mps 750 mmHg 85%
    21:00 +21°C° 0 mm 1 mps 750 mmHg 89%
    22:00 +21°C° 0 mm 1 mps 751 mmHg 92%
    23:00 +21°C° 0 mm 1 mps 751 mmHg 93%

    28 September, Thursday

    Time Temperature Precipitation Wind Pressure Humidity
    00:00 +20°C° 0 mm 1 mps 750 mmHg 94%
    01:00 +20°C° 0 mm 1 mps 750 mmHg 95%
    02:00 +20°C° 0 mm 1 mps 750 mmHg 95%
    03:00 +20°C° 0 mm 1 mps 750 mmHg 95%
    04:00 +20°C° 0 mm 1 mps 749 mmHg 95%
    05:00 +21°C° 0 mm 1 mps 750 mmHg 93%
    06:00 +21°C° 0 mm 1 mps 750 mmHg 91%
    07:00 +22°C° 0 mm 1 mps 751 mmHg 89%
    08:00 +24°C° 0 mm 2 mps 751 mmHg 77%
    09:00 +26°C° 0 mm 2 mps 751 mmHg 65%
    10:00 +29°C° 0 mm 2 mps 751 mmHg 53%
    11:00 +30°C° 0 mm 2 mps 750 mmHg 50%
    12:00 +31°C° 0 mm 2 mps 750 mmHg 47%
    13:00 +33°C° 0 mm 3 mps 749 mmHg 44%
    14:00 +31°C° 0 mm 3 mps 748 mmHg 48%
    15:00 +31°C° 0 mm 3 mps 748 mmHg 52%
    16:00 +30°C° 0 mm 3 mps 748 mmHg 55%
    17:00 +28°C° 0 mm 3 mps 748 mmHg 65%
    18:00 +26°C° 0 mm 3 mps 748 mmHg 75%
    19:00 +23°C° 0 mm 2 mps 749 mmHg 84%
    20:00 +23°C° 0 mm 2 mps 749 mmHg 86%
    21:00 +23°C° 0 mm 2 mps 750 mmHg 87%
    22:00 +23°C° 0 mm 2 mps 750 mmHg 88%
    23:00 +23°C° 0 mm 2 mps 750 mmHg 89%
    Show more